• Em Portugal
  • Lista de países
  • Para 7 dias
  • Temperatura da água
  • Mapas de satélite
  • Mapa do tempo
  • Widgets de tempo
  • user-avatar
    Iniciar Sessão

    Previsão horária em Kaunas

    Hoje, 21 Maio, Segunda-feira

    Tempo Temperatura Precipitação Vento Pressão Humidade
    00:00 +10°C° 0 mm 2 m/s 764 mmHg 74%
    01:00 +9°C° 0 mm 2 m/s 764 mmHg 75%
    02:00 +9°C° 0 mm 2 m/s 764 mmHg 75%
    03:00 +9°C° 0 mm 2 m/s 764 mmHg 77%
    04:00 +9°C° 0 mm 2 m/s 765 mmHg 79%
    05:00 +9°C° 0 mm 2 m/s 765 mmHg 81%
    06:00 +12°C° 0 mm 2 m/s 765 mmHg 76%
    07:00 +14°C° 0 mm 2 m/s 765 mmHg 71%
    08:00 +16°C° 0 mm 2 m/s 765 mmHg 66%
    09:00 +17°C° 0 mm 3 m/s 765 mmHg 60%
    10:00 +19°C° 0 mm 4 m/s 765 mmHg 54%
    11:00 +20°C° 0 mm 4 m/s 765 mmHg 48%
    12:00 +20°C° 0 mm 4 m/s 764 mmHg 47%
    13:00 +21°C° 0 mm 5 m/s 764 mmHg 45%
    14:00 +21°C° 0 mm 5 m/s 763 mmHg 44%
    15:00 +21°C° 0 mm 5 m/s 763 mmHg 46%
    16:00 +21°C° 0 mm 4 m/s 763 mmHg 48%
    17:00 +21°C° 0 mm 4 m/s 763 mmHg 50%
    18:00 +19°C° 0 mm 3 m/s 763 mmHg 56%
    19:00 +18°C° 0 mm 3 m/s 762 mmHg 63%
    20:00 +16°C° 0 mm 2 m/s 762 mmHg 69%
    21:00 +15°C° 0 mm 2 m/s 762 mmHg 71%
    22:00 +14°C° 0 mm 2 m/s 762 mmHg 74%
    23:00 +13°C° 0 mm 2 m/s 762 mmHg 77%

    Amanhã, 22 Maio, Terça-feira

    Tempo Temperatura Precipitação Vento Pressão Humidade
    00:00 +13°C° 0,2 mm 2 m/s 762 mmHg 79%
    01:00 +12°C° 0,2 mm 1 m/s 762 mmHg 81%
    02:00 +12°C° 0,2 mm 1 m/s 762 mmHg 83%
    03:00 +12°C° 0,4 mm 1 m/s 762 mmHg 84%
    04:00 +12°C° 0,4 mm 2 m/s 761 mmHg 85%
    05:00 +12°C° 0,4 mm 2 m/s 761 mmHg 86%
    06:00 +12°C° 0,2 mm 2 m/s 761 mmHg 87%
    07:00 +12°C° 0,2 mm 3 m/s 761 mmHg 88%
    08:00 +13°C° 0,2 mm 3 m/s 761 mmHg 89%
    09:00 +13°C° 0,2 mm 3 m/s 760 mmHg 87%
    10:00 +14°C° 0,2 mm 3 m/s 760 mmHg 85%
    11:00 +16°C° 0,2 mm 3 m/s 760 mmHg 84%
    12:00 +16°C° 0,2 mm 3 m/s 760 mmHg 80%
    13:00 +17°C° 0,2 mm 3 m/s 759 mmHg 76%
    14:00 +18°C° 0,2 mm 3 m/s 759 mmHg 72%
    15:00 +18°C° 0,2 mm 3 m/s 759 mmHg 71%
    16:00 +19°C° 0,2 mm 3 m/s 758 mmHg 69%
    17:00 +19°C° 0,2 mm 3 m/s 758 mmHg 67%
    18:00 +18°C° 0,6 mm 2 m/s 758 mmHg 74%
    19:00 +17°C° 0,6 mm 2 m/s 758 mmHg 80%
    20:00 +15°C° 0,6 mm 2 m/s 757 mmHg 87%
    21:00 +15°C° 0,2 mm 1 m/s 757 mmHg 89%
    22:00 +14°C° 0,2 mm 1 m/s 757 mmHg 90%
    23:00 +14°C° 0,2 mm 1 m/s 758 mmHg 92%

    Depois de amanhã, 23 Maio, Quarta-feira

    Tempo Temperatura Precipitação Vento Pressão Humidade
    00:00 +13°C° 0,2 mm 1 m/s 758 mmHg 93%
    01:00 +12°C° 0,2 mm 1 m/s 758 mmHg 94%
    02:00 +12°C° 0,2 mm 1 m/s 758 mmHg 95%
    03:00 +12°C° 0,2 mm 1 m/s 758 mmHg 95%
    04:00 +12°C° 0,2 mm 1 m/s 758 mmHg 96%
    05:00 +11°C° 0,2 mm 1 m/s 758 mmHg 96%
    06:00 +13°C° 0 mm 2 m/s 758 mmHg 92%
    07:00 +15°C° 0 mm 2 m/s 759 mmHg 88%
    08:00 +16°C° 0 mm 2 m/s 759 mmHg 85%
    09:00 +17°C° 0 mm 2 m/s 760 mmHg 78%
    10:00 +19°C° 0 mm 2 m/s 760 mmHg 71%
    11:00 +20°C° 0 mm 2 m/s 760 mmHg 64%
    12:00 +20°C° 0 mm 2 m/s 760 mmHg 62%
    13:00 +21°C° 0 mm 2 m/s 760 mmHg 60%
    14:00 +21°C° 0 mm 2 m/s 761 mmHg 58%
    15:00 +21°C° 0,1 mm 2 m/s 761 mmHg 59%
    16:00 +21°C° 0,1 mm 2 m/s 761 mmHg 61%
    17:00 +21°C° 0,1 mm 2 m/s 761 mmHg 63%
    18:00 +20°C° 0,1 mm 2 m/s 761 mmHg 70%
    19:00 +18°C° 0,1 mm 2 m/s 761 mmHg 77%
    20:00 +17°C° 0,1 mm 2 m/s 762 mmHg 83%
    21:00 +16°C° 0 mm 2 m/s 762 mmHg 86%
    22:00 +15°C° 0 mm 2 m/s 762 mmHg 89%
    23:00 +14°C° 0 mm 2 m/s 763 mmHg 92%

    24 Maio, Quinta-feira

    Tempo Temperatura Precipitação Vento Pressão Humidade
    00:00 +13°C° 0 mm 2 m/s 763 mmHg 92%
    01:00 +12°C° 0 mm 2 m/s 763 mmHg 92%
    02:00 +12°C° 0 mm 2 m/s 763 mmHg 93%
    03:00 +12°C° 0 mm 2 m/s 763 mmHg 93%
    04:00 +10°C° 0 mm 2 m/s 764 mmHg 92%
    05:00 +10°C° 0 mm 2 m/s 764 mmHg 92%
    06:00 +12°C° 0 mm 3 m/s 764 mmHg 87%
    07:00 +14°C° 0 mm 3 m/s 764 mmHg 81%
    08:00 +16°C° 0 mm 3 m/s 764 mmHg 76%
    09:00 +18°C° 0 mm 3 m/s 764 mmHg 70%
    10:00 +20°C° 0 mm 3 m/s 764 mmHg 64%
    11:00 +21°C° 0 mm 3 m/s 764 mmHg 58%
    12:00 +22°C° 0 mm 4 m/s 764 mmHg 56%
    13:00 +23°C° 0 mm 4 m/s 764 mmHg 55%
    14:00 +23°C° 0 mm 4 m/s 763 mmHg 53%
    15:00 +23°C° 0 mm 4 m/s 763 mmHg 54%
    16:00 +23°C° 0 mm 4 m/s 763 mmHg 56%
    17:00 +23°C° 0 mm 4 m/s 763 mmHg 58%
    18:00 +22°C° 0 mm 4 m/s 763 mmHg 64%
    19:00 +21°C° 0 mm 3 m/s 763 mmHg 70%
    20:00 +19°C° 0 mm 3 m/s 763 mmHg 76%
    21:00 +18°C° 0 mm 3 m/s 764 mmHg 77%
    22:00 +17°C° 0 mm 3 m/s 764 mmHg 77%
    23:00 +15°C° 0 mm 4 m/s 764 mmHg 78%

    25 Maio, Sexta-feira

    Tempo Temperatura Precipitação Vento Pressão Humidade
    00:00 +14°C° 0 mm 3 m/s 765 mmHg 79%
    01:00 +13°C° 0 mm 3 m/s 765 mmHg 80%
    02:00 +13°C° 0 mm 3 m/s 765 mmHg 81%
    03:00 +12°C° 0 mm 3 m/s 765 mmHg 84%
    04:00 +12°C° 0 mm 3 m/s 765 mmHg 87%
    05:00 +11°C° 0 mm 3 m/s 766 mmHg 90%
    06:00 +13°C° 0 mm 3 m/s 766 mmHg 85%
    07:00 +14°C° 0 mm 3 m/s 766 mmHg 80%
    08:00 +15°C° 0 mm 4 m/s 766 mmHg 75%
    09:00 +18°C° 0 mm 4 m/s 766 mmHg 70%
    10:00 +19°C° 0 mm 4 m/s 766 mmHg 64%
    11:00 +21°C° 0 mm 4 m/s 766 mmHg 59%
    12:00 +21°C° 0 mm 4 m/s 766 mmHg 57%
    13:00 +22°C° 0 mm 4 m/s 766 mmHg 55%
    14:00 +22°C° 0 mm 4 m/s 766 mmHg 53%
    15:00 +22°C° 0 mm 4 m/s 766 mmHg 54%
    16:00 +22°C° 0 mm 4 m/s 765 mmHg 55%
    17:00 +22°C° 0 mm 4 m/s 765 mmHg 56%
    18:00 +21°C° 0 mm 4 m/s 766 mmHg 62%
    19:00 +19°C° 0 mm 3 m/s 766 mmHg 68%
    20:00 +18°C° 0 mm 3 m/s 766 mmHg 74%
    21:00 +16°C° 0 mm 3 m/s 766 mmHg 75%
    22:00 +14°C° 0 mm 3 m/s 767 mmHg 76%
    23:00 +13°C° 0 mm 3 m/s 767 mmHg 77%

    26 Maio, Sábado

    Tempo Temperatura Precipitação Vento Pressão Humidade
    00:00 +12°C° 0 mm 3 m/s 767 mmHg 79%
    01:00 +12°C° 0 mm 3 m/s 768 mmHg 80%
    02:00 +12°C° 0 mm 2 m/s 768 mmHg 81%
    03:00 +12°C° 0 mm 2 m/s 768 mmHg 81%
    04:00 +10°C° 0 mm 3 m/s 768 mmHg 81%
    05:00 +10°C° 0 mm 3 m/s 769 mmHg 81%
    06:00 +12°C° 0 mm 3 m/s 769 mmHg 75%
    07:00 +13°C° 0 mm 3 m/s 769 mmHg 69%
    08:00 +15°C° 0 mm 4 m/s 769 mmHg 63%
    09:00 +17°C° 0 mm 4 m/s 769 mmHg 59%
    10:00 +19°C° 0 mm 4 m/s 769 mmHg 55%
    11:00 +20°C° 0 mm 4 m/s 769 mmHg 52%
    12:00 +21°C° 0 mm 4 m/s 769 mmHg 51%
    13:00 +21°C° 0 mm 4 m/s 768 mmHg 50%
    14:00 +22°C° 0 mm 4 m/s 768 mmHg 49%
    15:00 +22°C° 0 mm 4 m/s 768 mmHg 51%
    16:00 +22°C° 0 mm 4 m/s 768 mmHg 52%
    17:00 +21°C° 0 mm 4 m/s 767 mmHg 54%
    18:00 +20°C° 0 mm 3 m/s 767 mmHg 60%
    19:00 +18°C° 0 mm 3 m/s 767 mmHg 66%
    20:00 +17°C° 0 mm 3 m/s 767 mmHg 73%
    21:00 +16°C° 0 mm 3 m/s 767 mmHg 74%
    22:00 +14°C° 0 mm 3 m/s 767 mmHg 76%
    23:00 +13°C° 0 mm 3 m/s 768 mmHg 77%
    Mostrar mais